AB9HP Weather Reports


Display with metric or nautical units.
time (UTC)temp
F
wind
direction
speed
MPH
gust
MPH
rain 1hr
in
rain 24hr
in
rain mn
in
humidity
%
barometer
mb
20260905144552 71 155 0.0 5.0 0.02 1.26 1.26 98 1013.7
20260905143050 70 87 1.0 5.0 0.36 1.26 1.26 97 1013.0
20260905141547 69 224 0.0 2.0 0.85 1.26 1.26 97 1013.0
20260905140047 69 270 0.0 10.0 0.86 1.26 1.26 97 1013.2
20260905134547 70 254 0.0 6.0 0.84 1.24 1.24 97 1013.5
20260905133041 69 149 5.0 11.0 0.48 0.88 0.88 95 1014.0
20260905131538 71 167 4.0 7.0 0.01 0.41 0.41 90 1013.0
20260905130036 70 115 2.0 6.0 0.00 0.40 0.40 92 1013.0
20260905124535 69 155 2.0 7.0 0.00 0.40 0.40 93 1012.9
20260905123032 69 105 4.0 9.0 0.00 0.40 0.40 93 1013.2
20260905121530 69 143 3.0 8.0 0.00 0.40 0.40 94 1013.3
20260905120027 69 150 3.0 8.0 0.00 0.40 0.40 94 1013.2
20260905114525 69 210 1.0 6.0 0.00 0.40 0.40 95 1013.2
20260905113023 69 131 7.0 13.0 0.00 0.40 0.40 95 1013.1
20260905111521 69 133 4.0 8.0 0.00 0.40 0.40 95 1013.0
20260905110020 69 84 2.0 5.0 0.00 0.40 0.40 94 1013.4
20260905104516 69 105 1.0 7.0 0.08 0.40 0.40 94 1012.8
20260905103018 68 122 6.0 10.0 0.30 0.40 0.40 94 1012.9
20260905101512 69 213 6.0 12.0 0.37 0.40 0.40 94 1013.5
20260905100010 69 159 3.0 8.0 0.39 0.39 0.39 95 1013.6
20260905094508 69 233 2.0 8.0 0.32 0.32 0.32 94 1014.3
20260905093109 69 91 6.0 13.0 0.10 0.10 0.10 93 1013.6
20260905091502 69 51 6.0 16.0 0.03 0.03 0.03 92 1013.8
20260905084558 69 37 7.0 22.0 0.00 0.00 0.00 90 1014.0
20260905083053 70 98 9.0 21.0 0.00 0.00 0.00 86 1014.1
20260905081546 72 77 15.0 30.0 0.00 0.00 0.00 82 1013.9
20260905080046 73 349 14.0 27.0 0.00 0.00 0.00 81 1014.2
20260905074535 74 86 9.0 18.0 0.00 0.00 0.00 91 1013.5
20260905073030 75 91 0.0 1.0 0.00 0.00 0.00 90 1012.4
20260905071528 75 142 0.0 1.0 0.00 0.00 0.00 89 1012.3
20260905070033 75 141 0.0 1.0 0.00 0.00 0.00 90 1012.0
20260905064524 75 131 0.0 1.0 0.00 0.00 0.00 89 1011.7
20260905063023 75 105 1.0 3.0 0.00 0.00 0.00 89 1011.7
20260905061518 75 129 1.0 3.0 0.00 0.00 0.00 88 1011.5
20260905060015 76 147 1.0 2.0 0.00 0.00 0.00 88 1011.7
20260905054512 76 99 1.0 5.0 0.00 0.00 0.00 88 1012.3
20260905053012 76 96 3.0 6.0 0.00 0.00 0.00 89 1012.3
20260905051505 76 109 1.0 5.0 0.00 0.00 0.00 89 1012.6
20260905050004 76 108 1.0 4.0 0.00 0.00 0.00 88 1012.7
20260905044600 77 91 2.0 5.0 0.00 0.00 0.00 88 1012.9
20260905043059 77 118 2.0 4.0 0.00 0.00 0.00 87 1013.0
20260905041555 78 113 0.0 4.0 0.00 0.00 0.00 87 1013.1
20260905040056 78 134 0.0 3.0 0.00 0.00 0.00 88 1013.4
20260905034548 78 101 0.0 3.0 0.00 0.00 0.00 89 1013.3
20260905033050 78 133 0.0 2.0 0.00 0.00 0.00 88 1013.5
20260905031550 78 84 0.0 3.0 0.00 0.00 0.00 89 1013.6
20260905030048 78 112 0.0 4.0 0.00 0.00 0.00 88 1013.4
20260905024540 79 98 1.0 4.0 0.00 0.00 0.00 88 1013.6
20260905023038 79 98 1.0 3.0 0.00 0.00 0.00 88 1013.3
20260905021538 79 82 1.0 4.0 0.00 0.00 0.00 88 1013.3
20260905020045 80 117 0.0 3.0 0.00 0.00 0.00 87 1013.3
20260905014532 80 95 0.0 3.0 0.00 0.00 0.00 87 1013.2
20260905013034 81 102 0.0 3.0 0.00 0.00 0.00 86 1013.1
20260905011537 81 105 0.0 1.0 0.00 0.00 0.00 85 1013.2
20260905010024 82 68 0.0 4.0 0.00 0.00 0.00 84 1013.0
20260905004523 82 157 0.0 1.0 0.00 0.00 0.00 83 1012.6
20260905003029 83 158 0.0 1.0 0.00 0.00 0.00 83 1012.6
20260905001521 83 158 0.0 2.0 0.00 0.00 0.00 82 1012.5
20260905000019 84 207 2.0 4.0 0.00 0.00 0.00 81 1012.5
20260904234519 85 208 2.0 5.0 0.00 0.00 0.00 78 1012.5
20260904233014 86 206 0.0 5.0 0.00 0.00 0.00 78 1012.7
20260904231512 85 214 1.0 8.0 0.00 0.00 0.00 78 1012.5
20260904230009 86 155 5.0 10.0 0.00 0.00 0.00 77 1012.4
20260904224508 87 162 3.0 10.0 0.00 0.00 0.00 76 1012.4
20260904223005 87 174 5.0 9.0 0.00 0.00 0.00 75 1012.4
20260904221502 87 212 6.0 9.0 0.00 0.00 0.00 74 1012.5
20260904220106 87 193 2.0 8.0 0.00 0.00 0.00 75 1012.6
20260904214556 86 202 3.0 11.0 0.00 0.00 0.00 76 1012.7
20260904213057 86 108 3.0 9.0 0.00 0.00 0.00 76 1012.8
20260904211553 86 229 5.0 11.0 0.00 0.00 0.00 76 1012.7
20260904210050 84 122 5.0 13.0 0.00 0.00 0.00 78 1012.6
20260904204547 84 228 5.0 14.0 0.00 0.00 0.00 79 1012.4
20260904203045 83 125 10.0 17.0 0.00 0.00 0.00 78 1012.2
20260904201544 83 124 8.0 20.0 0.00 0.00 0.00 79 1012.2
20260904200040 84 141 6.0 12.0 0.00 0.00 0.00 76 1012.4
20260904194541 82 148 4.0 11.0 0.00 0.00 0.00 77 1013.3
20260904193032 80 117 5.0 10.0 0.00 0.00 0.00 81 1013.9
20260904191530 79 91 4.0 12.0 0.00 0.00 0.00 82 1014.5
20260904190028 80 65 3.0 11.0 0.00 0.00 0.00 82 1015.3
20260904184626 80 39 6.0 12.0 0.00 0.00 0.00 81 1015.7
20260904183024 80 105 4.0 12.0 0.00 0.00 0.00 82 1016.2
20260904181541 80 45 3.0 10.0 0.00 0.00 0.00 81 1016.3
20260904180018 80 101 3.0 17.0 0.00 0.00 0.00 82 1016.1
20260904174515 81 23 8.0 21.0 0.00 0.00 0.00 81 1015.7
20260904173019 83 20 9.0 18.0 0.00 0.00 0.00 80 1015.4
20260904171512 83 58 6.0 19.0 0.00 0.00 0.00 80 1015.5
20260904170008 88 13 11.0 20.0 0.00 0.00 0.00 73 1015.6
20260904164506 89 354 4.0 9.0 0.00 0.00 0.00 71 1015.3
20260904163006 90 266 6.0 10.0 0.00 0.00 0.00 69 1015.2
20260904161504 90 263 4.0 8.0 0.00 0.00 0.00 68 1015.2
20260904154556 89 235 4.0 11.0 0.00 0.00 0.00 71 1015.0
20260904153053 88 295 6.0 11.0 0.00 0.00 0.00 72 1015.1
20260904151547 87 281 3.0 10.0 0.00 0.00 0.00 73 1015.0
20260904150043 87 281 3.0 8.0 0.00 0.00 0.00 74 1015.1